Time,TemperatureF,DewpointF,PressureIn,WindDirection,WindDirectionDegrees,WindSpeedMPH,WindSpeedGustMPH,Humidity,HourlyPrecipIn,Conditions,Clouds,dailyrainin,SoftwareType,DateUTC
2013-02-27 00:00:00,35.0,32.0,-100.00,North,360,0.0,-999.0,90,0.00,,,0.00,,2013-02-27 06:00:00,
2013-02-27 00:33:00,35.0,32.0,-100.00,North,360,0.0,-999.0,90,0.00,,,0.00,,2013-02-27 06:33:00,
2013-02-27 00:42:00,35.0,32.0,-100.00,North,360,0.0,-999.0,90,0.00,,,0.00,,2013-02-27 06:42:00,
2013-02-27 00:52:00,35.0,32.0,-100.00,North,360,0.0,-999.0,90,0.00,,,0.00,,2013-02-27 06:52:00,
2013-02-27 01:00:00,34.0,32.0,-100.00,NNW,335,1.0,-999.0,92,0.00,,,0.00,,2013-02-27 07:00:00,
2013-02-27 01:32:00,34.0,32.0,-100.00,NNW,335,1.0,-999.0,92,0.00,,,0.00,,2013-02-27 07:32:00,
2013-02-27 01:42:00,34.0,32.0,-100.00,NNW,335,1.0,-999.0,92,0.00,,,0.00,,2013-02-27 07:42:00,
2013-02-27 01:52:00,34.0,32.0,-100.00,NNW,335,1.0,-999.0,92,0.00,,,0.00,,2013-02-27 07:52:00,
2013-02-27 02:00:00,31.0,29.0,-100.00,South,180,2.0,-999.0,93,0.00,,,0.00,,2013-02-27 08:00:00,
2013-02-27 02:32:00,31.0,29.0,-100.00,South,180,2.0,-999.0,93,0.00,,,0.00,,2013-02-27 08:32:00,
2013-02-27 02:42:00,31.0,29.0,-100.00,South,180,2.0,-999.0,93,0.00,,,0.00,,2013-02-27 08:42:00,
2013-02-27 02:53:00,31.0,29.0,-100.00,South,180,2.0,-999.0,93,0.00,,,0.00,,2013-02-27 08:53:00,
2013-02-27 03:00:00,32.0,31.0,-100.00,North,357,2.0,-999.0,96,0.00,,,0.00,,2013-02-27 09:00:00,
2013-02-27 03:32:00,32.0,31.0,-100.00,North,357,2.0,-999.0,96,0.00,,,0.00,,2013-02-27 09:32:00,
2013-02-27 03:42:00,32.0,31.0,-100.00,North,357,2.0,-999.0,96,0.00,,,0.00,,2013-02-27 09:42:00,
2013-02-27 03:52:00,32.0,31.0,-100.00,North,357,2.0,-999.0,96,0.00,,,0.00,,2013-02-27 09:52:00,
2013-02-27 04:00:00,32.0,32.0,-100.00,North,351,4.0,-999.0,99,0.00,,,0.00,,2013-02-27 10:00:00,
2013-02-27 04:32:00,32.0,32.0,-100.00,North,351,4.0,-999.0,99,0.00,,,0.00,,2013-02-27 10:32:00,
2013-02-27 04:42:00,32.0,32.0,-100.00,North,351,4.0,-999.0,99,0.00,,,0.00,,2013-02-27 10:42:00,
2013-02-27 04:53:00,32.0,32.0,-100.00,North,351,4.0,-999.0,99,0.00,,,0.00,,2013-02-27 10:53:00,
2013-02-27 05:00:00,31.0,31.0,-100.00,West,274,1.0,-999.0,98,0.00,,,0.00,,2013-02-27 11:00:00,
2013-02-27 05:32:00,31.0,31.0,-100.00,West,274,1.0,-999.0,98,0.00,,,0.00,,2013-02-27 11:32:00,
2013-02-27 05:42:00,31.0,31.0,-100.00,West,274,1.0,-999.0,98,0.00,,,0.00,,2013-02-27 11:42:00,
2013-02-27 05:52:00,31.0,31.0,-100.00,West,274,1.0,-999.0,98,0.00,,,0.00,,2013-02-27 11:52:00,
2013-02-27 06:00:00,32.0,31.0,-100.00,NW,312,2.0,-999.0,97,0.00,,,0.00,,2013-02-27 12:00:00,
2013-02-27 06:33:00,32.0,31.0,-100.00,NW,312,2.0,-999.0,97,0.00,,,0.00,,2013-02-27 12:33:00,
2013-02-27 06:42:00,32.0,31.0,-100.00,NW,312,2.0,-999.0,97,0.00,,,0.00,,2013-02-27 12:42:00,
2013-02-27 06:52:00,32.0,31.0,-100.00,NW,312,2.0,-999.0,97,0.00,,,0.00,,2013-02-27 12:52:00,
2013-02-27 07:00:00,33.0,32.0,-100.00,WNW,296,4.0,-999.0,94,0.00,,,0.00,,2013-02-27 13:00:00,
2013-02-27 07:32:00,33.0,32.0,-100.00,WNW,296,4.0,-999.0,94,0.00,,,0.00,,2013-02-27 13:32:00,
2013-02-27 07:42:00,33.0,32.0,-100.00,WNW,296,4.0,-999.0,94,0.00,,,0.00,,2013-02-27 13:42:00,
2013-02-27 07:52:00,33.0,32.0,-100.00,WNW,296,4.0,-999.0,94,0.00,,,0.00,,2013-02-27 13:52:00,
2013-02-27 08:00:00,35.0,33.0,-100.00,WNW,295,3.0,-999.0,90,0.00,,,0.00,,2013-02-27 14:00:00,
2013-02-27 08:32:00,35.0,33.0,-100.00,WNW,295,3.0,-999.0,90,0.00,,,0.00,,2013-02-27 14:32:00,
2013-02-27 08:42:00,35.0,33.0,-100.00,WNW,295,3.0,-999.0,90,0.00,,,0.00,,2013-02-27 14:42:00,
2013-02-27 08:52:00,35.0,33.0,-100.00,WNW,295,3.0,-999.0,90,0.00,,,0.00,,2013-02-27 14:52:00,
2013-02-27 09:00:00,37.0,33.0,-100.00,NW,307,3.0,-999.0,87,0.00,,,0.00,,2013-02-27 15:00:00,
2013-02-27 09:32:00,37.0,33.0,-100.00,NW,307,3.0,-999.0,87,0.00,,,0.00,,2013-02-27 15:32:00,
2013-02-27 09:42:00,37.0,33.0,-100.00,NW,307,3.0,-999.0,87,0.00,,,0.00,,2013-02-27 15:42:00,
2013-02-27 09:52:00,37.0,33.0,-100.00,NW,307,3.0,-999.0,87,0.00,,,0.00,,2013-02-27 15:52:00,
2013-02-27 10:00:00,41.0,34.0,-100.00,NNW,333,8.0,-999.0,76,0.00,,,0.00,,2013-02-27 16:00:00,
2013-02-27 10:32:00,41.0,34.0,-100.00,NNW,333,8.0,-999.0,76,0.00,,,0.00,,2013-02-27 16:32:00,
2013-02-27 10:42:00,41.0,34.0,-100.00,NNW,333,8.0,-999.0,76,0.00,,,0.00,,2013-02-27 16:42:00,
2013-02-27 10:52:00,41.0,34.0,-100.00,NNW,333,8.0,-999.0,76,0.00,,,0.00,,2013-02-27 16:52:00,
2013-02-27 11:00:00,45.0,31.0,-100.00,NNW,335,10.0,-999.0,58,0.00,,,0.00,,2013-02-27 17:00:00,
2013-02-27 11:32:00,45.0,31.0,-100.00,NNW,335,10.0,-999.0,58,0.00,,,0.00,,2013-02-27 17:32:00,
2013-02-27 11:42:00,45.0,31.0,-100.00,NNW,335,10.0,-999.0,58,0.00,,,0.00,,2013-02-27 17:42:00,
2013-02-27 11:52:00,45.0,31.0,-100.00,NNW,335,10.0,-999.0,58,0.00,,,0.00,,2013-02-27 17:52:00,
2013-02-27 12:00:00,48.0,30.0,-100.00,NNW,346,14.0,-999.0,51,0.00,,,0.00,,2013-02-27 18:00:00,
2013-02-27 12:32:00,48.0,30.0,-100.00,NNW,346,14.0,-999.0,51,0.00,,,0.00,,2013-02-27 18:32:00,
2013-02-27 12:42:00,48.0,30.0,-100.00,NNW,346,14.0,-999.0,51,0.00,,,0.00,,2013-02-27 18:42:00,
2013-02-27 12:52:00,48.0,30.0,-100.00,NNW,346,14.0,-999.0,51,0.00,,,0.00,,2013-02-27 18:52:00,
2013-02-27 13:00:00,50.0,30.0,-100.00,NNW,332,10.0,-999.0,47,0.00,,,0.00,,2013-02-27 19:00:00,
2013-02-27 13:32:00,50.0,30.0,-100.00,NNW,332,10.0,-999.0,47,0.00,,,0.00,,2013-02-27 19:32:00,
2013-02-27 13:42:00,50.0,30.0,-100.00,NNW,332,10.0,-999.0,47,0.00,,,0.00,,2013-02-27 19:42:00,
2013-02-27 13:52:00,50.0,30.0,-100.00,NNW,332,10.0,-999.0,47,0.00,,,0.00,,2013-02-27 19:52:00,
2013-02-27 14:00:00,50.0,31.0,-100.00,NNW,334,11.0,-999.0,48,0.00,,,-99.99,,2013-02-27 20:00:00,
2013-02-27 14:32:00,50.0,31.0,-100.00,NNW,334,11.0,-999.0,48,0.00,,,-99.99,,2013-02-27 20:32:00,
2013-02-27 14:42:00,50.0,31.0,-100.00,NNW,334,11.0,-999.0,48,0.00,,,-99.99,,2013-02-27 20:42:00,
2013-02-27 14:52:00,50.0,31.0,-100.00,NNW,334,11.0,-999.0,48,0.00,,,-99.99,,2013-02-27 20:52:00,
2013-02-27 15:00:00,52.0,30.0,-100.00,NW,304,10.0,-999.0,43,0.00,,,-99.99,,2013-02-27 21:00:00,
2013-02-27 15:32:00,52.0,30.0,-100.00,NW,304,10.0,-999.0,43,0.00,,,-99.99,,2013-02-27 21:32:00,
2013-02-27 15:42:00,52.0,30.0,-100.00,NW,304,10.0,-999.0,43,0.00,,,-99.99,,2013-02-27 21:42:00,
2013-02-27 15:52:00,52.0,30.0,-100.00,NW,304,10.0,-999.0,43,0.00,,,-99.99,,2013-02-27 21:52:00,
2013-02-27 16:00:00,52.0,29.0,-100.00,NW,324,11.0,-999.0,41,0.00,,,0.00,,2013-02-27 22:00:00,
2013-02-27 16:32:00,52.0,29.0,-100.00,NW,324,11.0,-999.0,41,0.00,,,0.00,,2013-02-27 22:32:00,
2013-02-27 16:42:00,52.0,29.0,-100.00,NW,324,11.0,-999.0,41,0.00,,,0.00,,2013-02-27 22:42:00,
2013-02-27 16:52:00,52.0,29.0,-100.00,NW,324,11.0,-999.0,41,0.00,,,0.00,,2013-02-27 22:52:00,
2013-02-27 17:00:00,52.0,29.0,-100.00,NW,325,9.0,-999.0,41,0.00,,,0.00,,2013-02-27 23:00:00,
2013-02-27 17:32:00,52.0,29.0,-100.00,NW,325,9.0,-999.0,41,0.00,,,0.00,,2013-02-27 23:32:00,
2013-02-27 17:42:00,52.0,29.0,-100.00,NW,325,9.0,-999.0,41,0.00,,,0.00,,2013-02-27 23:42:00,
2013-02-27 17:53:00,52.0,29.0,-100.00,NW,325,9.0,-999.0,41,0.00,,,0.00,,2013-02-27 23:53:00,
2013-02-27 18:00:00,52.0,30.0,-100.00,WNW,303,4.0,-999.0,43,0.00,,,0.00,,2013-02-28 00:00:00,
2013-02-27 18:32:00,52.0,30.0,-100.00,WNW,303,4.0,-999.0,43,0.00,,,0.00,,2013-02-28 00:32:00,
2013-02-27 18:42:00,52.0,30.0,-100.00,WNW,303,4.0,-999.0,43,0.00,,,0.00,,2013-02-28 00:42:00,
2013-02-27 18:52:00,52.0,30.0,-100.00,WNW,303,4.0,-999.0,43,0.00,,,0.00,,2013-02-28 00:52:00,
2013-02-27 19:00:00,48.0,23.0,-100.00,NNW,346,11.0,-999.0,37,0.00,,,0.00,,2013-02-28 01:00:00,
2013-02-27 19:32:00,48.0,23.0,-100.00,NNW,346,11.0,-999.0,37,0.00,,,0.00,,2013-02-28 01:32:00,
2013-02-27 19:42:00,48.0,23.0,-100.00,NNW,346,11.0,-999.0,37,0.00,,,0.00,,2013-02-28 01:42:00,
2013-02-27 19:52:00,48.0,23.0,-100.00,NNW,346,11.0,-999.0,37,0.00,,,0.00,,2013-02-28 01:52:00,
2013-02-27 20:00:00,46.0,24.0,-100.00,NNW,346,10.0,-999.0,41,0.00,,,0.00,,2013-02-28 02:00:00,
2013-02-27 21:00:00,44.0,26.0,-100.00,NNW,337,9.0,-999.0,50,0.00,,,0.00,,2013-02-28 03:00:00,
2013-02-27 21:32:00,44.0,26.0,-100.00,NNW,337,9.0,-999.0,50,0.00,,,0.00,,2013-02-28 03:32:00,
2013-02-27 21:42:00,44.0,26.0,-100.00,NNW,337,9.0,-999.0,50,0.00,,,0.00,,2013-02-28 03:42:00,
2013-02-27 21:52:00,44.0,26.0,-100.00,NNW,337,9.0,-999.0,50,0.00,,,0.00,,2013-02-28 03:52:00,
2013-02-27 22:00:00,42.0,27.0,-100.00,NNW,344,10.0,-999.0,56,0.00,,,0.00,,2013-02-28 04:00:00,
2013-02-27 22:32:00,42.0,27.0,-100.00,NNW,344,10.0,-999.0,56,0.00,,,0.00,,2013-02-28 04:32:00,
2013-02-27 22:42:00,42.0,27.0,-100.00,NNW,344,10.0,-999.0,56,0.00,,,0.00,,2013-02-28 04:42:00,
2013-02-27 22:52:00,42.0,27.0,-100.00,NNW,344,10.0,-999.0,56,0.00,,,0.00,,2013-02-28 04:52:00,
2013-02-27 23:00:00,40.0,27.0,-100.00,NNW,345,8.0,-999.0,58,0.00,,,0.00,,2013-02-28 05:00:00,
2013-02-27 23:32:00,40.0,27.0,-100.00,NNW,345,8.0,-999.0,58,0.00,,,0.00,,2013-02-28 05:32:00,
2013-02-27 23:43:00,40.0,27.0,-100.00,NNW,345,8.0,-999.0,58,0.00,,,0.00,,2013-02-28 05:43:00,
2013-02-27 23:52:00,40.0,27.0,-100.00,NNW,345,8.0,-999.0,58,0.00,,,0.00,,2013-02-28 05:52:00,